Theta_e
292 283 281 281 283 285 288 289 289 291 291 292 292 292 291 290 291 295 296 298 299 295 294 295 295 295 296 298 300 301 299 300 301 300 303 303 304 305 307 314 331 332 333 337 337 339 339 339 339 339 339 340 340 340 339 339 338 338 338 337 335 338 339 339 338 337 337 336 336 337 337 336 335 336 338 337 336 336 337 338 338 338 338 338 336 335
291 282 282 285 287 287 288 290 290 290 291 290 289 290 289 291 289 294 295 298 299 295 293 295 295 295 296 298 300 301 301 299 299 301 301 303 304 304 307 311 329 332 336 337 335 338 338 338 338 338 338 339 337 338 338 337 337 337 338 336 335 337 338 338 338 338 337 336 335 335 335 335 334 337 335 334 335 335 337 337 337 337 337 338 336 335
282 281 285 288 290 290 289 289 290 289 288 289 288 288 288 290 293 295 296 298 298 296 292 294 293 294 296 298 299 300 301 301 302 300 302 302 303 305 308 310 328 331 333 334 334 337 337 337 337 337 338 338 338 337 337 337 336 336 336 335 334 337 337 338 339 338 337 337 338 337 335 334 333 337 337 336 336 336 335 336 337 337 337 338 336 335
278 282 287 290 290 288 288 288 288 288 289 287 287 286 285 290 290 287 294 296 297 296 292 293 293 294 297 298 299 300 301 302 303 304 303 304 303 305 308 311 327 331 332 332 332 334 336 336 336 336 337 337 337 337 336 335 335 336 335 333 334 336 337 338 339 339 338 338 337 336 335 334 334 332 335 336 336 336 336 336 337 337 337 337 337 336
281 286 290 289 289 288 286 287 286 285 284 288 288 288 288 289 291 291 291 295 296 297 297 294 292 292 295 295 296 299 301 302 302 303 303 305 306 307 311 314 331 331 331 331 332 334 334 334 334 336 337 338 336 336 335 335 335 336 334 334 334 336 336 338 339 338 339 336 334 334 334 334 333 332 333 333 333 335 336 336 336 337 337 336 335 335
285 289 291 288 287 287 286 284 285 286 283 286 289 289 290 292 291 292 294 293 290 289 295 293 283 286 293 295 296 298 298 298 301 301 301 302 304 305 307 313 328 331 332 331 331 333 334 334 334 336 337 336 336 335 335 335 335 335 335 334 334 336 336 337 337 338 338 334 333 331 329 328 328 328 329 329 331 333 333 333 335 337 337 336 336 337
286 290 289 287 286 286 286 285 286 287 284 284 286 292 291 292 292 293 292 291 286 284 291 296 285 279 290 292 294 296 297 297 299 300 300 302 304 305 307 313 326 329 330 332 333 334 333 333 334 335 335 335 335 335 337 336 335 335 335 335 335 335 336 337 337 338 337 334 333 331 331 330 329 328 328 330 332 333 333 333 333 333 335 336 336 335
287 286 286 287 286 285 284 283 286 287 285 283 291 292 292 291 290 291 291 291 289 293 294 294 292 283 283 291 295 297 296 297 297 298 300 303 304 305 307 314 326 328 330 330 332 333 333 334 334 334 335 335 335 336 336 336 335 334 334 334 334 335 336 337 337 338 338 335 333 331 330 330 330 330 330 331 331 332 332 331 331 330 330 333 333 333
286 284 284 284 284 283 282 286 288 289 286 287 292 294 291 291 291 292 291 290 290 288 286 290 293 285 284 290 296 296 294 295 296 297 300 303 304 306 307 320 327 329 330 331 331 332 333 333 334 336 335 335 336 336 335 335 334 334 334 334 334 334 335 336 337 337 337 337 334 332 330 330 330 331 331 331 331 330 330 329 329 328 327 328 329 330
287 286 287 287 284 282 286 288 289 289 285 290 293 295 294 293 292 292 290 289 289 287 282 288 291 284 284 289 292 296 294 294 295 297 300 303 305 306 308 324 328 329 330 332 332 333 333 334 335 336 336 335 336 336 336 336 336 335 334 334 334 333 335 336 336 337 336 336 334 331 330 330 330 330 330 331 329 328 328 328 327 326 325 326 326 326
287 292 293 289 285 287 288 290 291 290 290 294 293 292 291 291 290 291 291 289 287 282 284 289 291 289 280 287 292 290 293 296 296 297 300 303 306 307 310 325 327 329 330 331 332 333 333 335 336 336 335 335 336 336 336 335 336 336 334 335 334 334 335 336 337 337 336 335 332 331 331 330 329 329 329 328 327 327 327 326 326 326 325 325 325 325
286 287 287 289 292 291 291 289 292 293 292 291 289 289 288 287 289 287 287 289 282 281 288 291 291 291 282 284 293 296 297 298 298 297 298 302 305 307 312 325 327 329 330 330 331 331 332 333 335 336 335 335 335 335 335 335 336 335 335 335 334 334 335 336 337 337 336 333 331 331 330 330 330 329 328 327 326 326 326 327 326 326 325 323 324 324
281 282 287 289 293 290 288 287 288 291 291 290 289 288 282 279 281 278 282 279 280 280 287 291 292 288 287 288 293 296 297 299 300 301 300 304 306 308 316 324 327 329 330 330 330 331 332 332 333 334 334 334 334 334 334 335 335 335 335 335 333 334 335 336 336 335 334 332 331 330 329 330 330 329 328 327 326 327 326 326 326 325 323 321 321 320
279 286 286 287 289 292 290 283 283 283 288 287 286 285 281 277 277 275 278 280 282 287 292 291 293 287 289 292 296 296 298 301 301 302 302 305 307 308 318 324 326 328 329 329 330 330 332 332 333 334 334 334 334 334 334 334 334 334 334 334 333 334 334 334 334 333 332 333 331 330 329 330 331 329 328 327 327 327 327 327 325 324 323 321 320 320
272 274 282 285 282 291 290 288 287 287 288 288 291 288 284 282 279 275 278 276 279 281 287 293 288 284 285 285 299 299 299 301 302 303 303 306 309 309 320 324 326 327 328 329 329 330 331 332 333 334 334 334 333 334 334 334 333 333 332 333 333 333 333 333 332 332 332 332 332 331 330 330 331 329 328 327 328 328 327 326 325 324 322 321 320 319
279 278 285 290 290 292 289 292 292 290 289 291 292 292 287 284 287 281 281 282 282 281 283 286 284 289 288 295 300 301 300 300 303 303 303 306 309 309 316 322 323 325 327 329 329 330 331 332 333 333 334 333 333 333 333 333 332 332 332 332 333 334 333 332 331 331 331 332 332 331 330 330 330 328 327 327 327 328 328 326 324 323 322 321 319 319
281 278 287 290 291 291 291 293 292 293 281 289 290 285 288 294 291 283 284 289 285 282 280 284 289 292 294 296 297 299 299 299 301 302 302 305 308 309 314 320 321 322 327 328 329 330 331 332 332 333 332 332 332 332 332 332 332 332 331 331 332 333 333 333 332 331 331 332 332 331 330 329 328 327 326 327 327 327 326 325 324 322 321 320 319 319
278 279 287 286 286 291 295 295 294 295 294 290 285 289 295 297 294 286 279 281 281 279 279 287 282 285 287 282 294 296 297 298 299 300 302 306 308 308 312 319 319 322 326 328 329 330 331 331 331 332 332 332 332 332 331 331 331 332 332 331 331 332 333 333 332 331 331 331 331 331 330 329 329 328 327 327 327 326 324 322 322 321 320 319 319 319
286 278 284 289 289 291 294 295 292 295 298 291 289 297 288 283 282 286 284 279 279 278 278 283 285 285 288 287 293 293 295 295 298 300 302 305 307 309 311 316 319 324 326 327 327 328 329 329 330 331 331 331 332 332 331 331 331 332 332 332 332 332 333 332 332 332 332 331 332 333 331 331 330 329 327 326 326 325 323 321 320 320 319 319 319 318
288 278 281 291 290 292 293 293 282 287 294 296 296 292 294 290 287 283 284 286 285 278 278 279 284 279 290 290 294 295 296 296 298 301 304 306 308 310 311 314 320 323 324 325 326 328 329 330 331 331 331 330 330 330 330 331 331 332 332 331 331 332 333 332 331 332 331 331 332 332 332 331 330 329 327 325 323 322 321 321 320 319 318 317 317 316
284 289 277 286 292 291 284 288 285 287 286 288 289 287 290 291 293 291 292 287 282 278 278 278 278 283 289 296 296 296 298 298 299 302 305 307 309 310 312 317 321 323 324 326 327 328 329 330 330 331 331 332 331 331 331 331 331 332 332 331 331 331 331 331 332 332 331 332 331 331 330 329 328 327 326 323 322 321 320 319 319 317 317 316 315 315
283 285 279 284 285 283 286 292 291 291 292 291 289 287 289 287 285 282 281 291 289 284 279 280 278 287 294 301 299 298 299 300 301 302 305 307 309 311 313 320 322 323 325 327 328 329 329 330 330 331 331 331 331 330 330 331 331 330 330 330 330 331 331 331 333 332 332 332 331 330 328 328 327 326 324 322 321 320 319 318 317 317 316 315 315 315
291 288 284 281 284 285 289 293 295 296 295 294 293 289 292 291 289 285 280 283 289 287 291 286 281 285 295 298 301 300 302 304 303 305 306 308 310 312 315 321 323 324 325 327 328 329 330 330 330 330 330 330 330 329 330 330 329 329 329 329 330 331 331 333 333 333 332 331 330 329 328 327 326 325 323 322 321 319 318 317 316 317 316 315 315 315
295 285 281 284 288 291 295 296 296 296 295 291 292 294 292 289 290 288 288 287 283 285 283 283 280 283 295 303 301 302 305 306 306 306 307 309 311 313 317 320 322 324 326 327 329 330 330 330 330 330 329 329 329 328 329 329 329 328 329 329 330 331 332 333 333 333 332 330 330 329 327 326 325 324 322 321 320 318 317 317 316 317 316 315 315 314
285 284 283 278 279 281 285 290 290 295 295 290 289 291 293 293 293 293 293 294 284 287 287 282 279 282 294 304 303 303 305 305 305 305 308 309 311 315 319 321 323 325 326 326 328 329 330 329 328 328 328 329 329 329 329 329 329 328 328 329 330 331 333 334 334 333 331 330 328 327 326 325 324 323 322 320 319 317 317 316 316 316 315 315 314 313
289 285 283 276 274 272 273 275 278 281 285 288 291 292 293 292 291 290 284 289 284 288 291 283 282 288 296 301 300 301 302 302 304 305 308 310 313 318 320 322 324 325 325 327 328 328 328 328 328 328 328 329 329 328 328 329 329 329 329 330 331 331 333 334 333 332 331 330 327 326 325 324 323 322 321 319 317 316 316 315 315 315 315 315 313 312
289 291 288 284 281 279 282 286 290 291 289 285 288 290 291 293 294 292 292 287 283 286 286 289 290 290 296 297 298 298 300 300 301 306 309 311 316 320 322 323 324 325 325 326 327 328 328 327 327 327 328 329 329 328 328 329 329 330 330 330 331 332 333 333 332 331 330 328 327 325 325 324 323 322 320 318 317 316 316 315 315 315 314 314 312 311
292 285 287 288 288 288 290 290 292 292 288 289 289 289 292 292 292 292 288 286 294 289 283 295 296 293 294 297 298 298 300 301 302 310 312 315 318 320 322 323 321 324 325 326 327 327 327 326 326 326 327 328 328 328 328 329 329 331 331 330 331 331 331 332 331 330 329 327 326 325 324 324 323 322 320 318 317 316 316 316 315 314 314 313 312 311
288 282 289 289 288 290 292 292 293 292 291 290 290 290 290 291 291 289 292 295 296 285 284 294 297 296 299 302 305 304 306 302 304 312 314 317 318 320 321 322 323 323 324 324 326 327 327 326 326 326 327 328 328 328 328 329 329 331 331 330 330 330 330 331 330 329 328 327 325 325 325 324 323 321 320 318 317 316 316 315 314 313 313 312 312 312
292 285 291 291 289 291 291 292 292 291 291 291 291 291 292 291 291 294 298 298 298 297 298 298 298 299 302 302 304 307 309 310 305 313 316 315 316 318 320 321 322 322 323 323 325 326 327 327 327 327 327 327 328 328 328 329 329 330 330 330 331 330 330 330 329 328 327 326 325 325 324 323 321 320 319 317 316 316 315 314 313 313 312 312 312 311
293 283 291 290 288 289 290 292 292 291 291 289 291 292 292 292 292 295 298 298 299 297 299 298 297 296 301 306 308 309 310 310 307 314 314 315 316 317 319 320 321 322 323 323 324 325 326 327 327 327 326 327 328 328 329 329 330 331 331 331 330 330 329 329 328 327 326 325 325 325 324 321 320 319 318 317 316 316 315 314 313 313 312 311 311 310
294 284 293 290 283 284 290 290 291 292 291 290 290 291 291 291 291 295 293 298 296 295 298 298 295 295 301 307 308 310 311 310 309 313 314 314 315 316 318 319 320 321 322 323 324 325 325 326 326 326 326 326 327 328 329 329 330 331 331 330 329 329 329 328 327 326 325 325 324 324 322 320 319 318 317 317 316 316 315 314 313 312 311 311 310 309
292 289 283 283 282 282 289 291 290 290 289 286 287 290 293 295 296 297 298 299 299 300 293 288 294 303 305 306 307 309 311 311 310 312 312 314 315 316 317 318 320 321 322 323 323 324 325 326 327 327 326 327 327 328 329 330 330 330 330 329 329 329 327 326 326 325 325 324 324 323 321 319 318 317 317 316 316 316 315 314 312 311 311 310 310 308
294 291 286 290 282 282 289 291 290 284 278 281 292 296 298 295 296 295 296 297 300 302 298 299 300 304 304 304 305 306 310 310 312 313 314 313 313 314 316 318 320 322 322 323 324 324 325 326 327 327 327 328 328 328 329 330 330 330 330 329 329 328 327 326 326 325 324 324 323 322 320 319 318 317 316 316 316 316 315 314 312 311 311 310 310 308
292 289 285 290 283 283 287 288 282 276 279 290 295 297 298 300 297 297 298 300 300 302 304 300 302 302 304 305 306 309 312 313 314 313 314 315 314 312 315 317 319 321 322 322 323 324 325 326 327 327 327 328 328 328 329 329 330 330 329 328 327 327 327 326 325 324 324 322 322 321 319 318 317 317 316 316 316 315 315 313 312 311 310 310 309 309
287 285 286 286 285 284 283 283 276 277 288 294 295 297 299 299 298 297 295 299 299 302 302 301 302 303 304 306 310 312 312 313 313 314 316 316 318 313 315 317 319 321 322 323 323 324 325 326 327 327 327 327 328 329 329 328 329 328 328 328 327 326 326 326 325 324 323 322 321 320 319 318 317 317 316 315 315 315 314 313 312 311 310 310 310 309
294 293 288 283 289 281 282 282 281 289 290 291 292 295 295 292 293 291 285 291 301 301 300 299 302 304 306 308 310 311 312 312 309 310 316 316 318 319 315 317 320 322 324 325 325 325 328 328 328 328 327 327 328 329 329 329 329 328 327 327 326 326 325 325 324 323 322 321 321 320 319 318 317 316 315 315 314 314 313 313 312 311 311 310 310 309
299 288 290 286 283 285 282 280 282 281 279 284 292 299 302 302 300 299 295 289 300 300 301 300 302 304 307 309 309 310 311 306 303 305 312 316 318 320 320 323 321 323 324 324 326 327 328 328 328 328 328 327 327 329 329 329 328 327 326 325 326 325 324 324 323 323 321 321 321 320 320 319 317 316 315 314 314 313 314 313 313 312 311 310 309 308
299 297 293 285 283 283 283 281 280 278 280 287 292 297 301 303 303 300 292 284 292 296 300 304 305 307 308 307 307 310 307 300 301 306 313 316 317 320 320 324 326 325 326 327 327 327 327 327 327 327 327 327 326 327 328 328 327 326 325 324 325 325 324 323 323 322 321 321 321 321 320 319 317 316 315 314 314 314 314 314 313 312 311 311 310 308
294 289 286 284 282 283 282 282 281 283 282 290 301 303 301 304 300 293 281 280 290 304 302 302 305 307 307 310 311 308 305 299 303 308 313 316 317 316 319 323 326 326 326 327 328 328 327 326 326 327 327 327 327 328 328 328 327 324 324 324 325 324 323 323 323 323 322 321 320 320 318 317 316 315 315 314 314 314 314 313 312 311 311 310 310 308
286 286 286 284 284 284 284 283 285 286 291 300 303 305 305 304 295 283 280 283 300 307 305 305 309 309 311 311 310 304 308 308 310 313 316 317 318 318 321 325 327 327 326 326 325 319 326 327 327 327 326 326 327 327 327 327 325 323 323 323 323 322 322 323 323 323 321 320 319 317 316 316 315 314 315 315 314 313 313 312 312 311 311 310 308 307
286 286 285 285 283 284 284 283 283 285 292 300 304 306 304 297 283 281 289 303 307 306 308 309 308 309 309 310 309 311 312 316 316 318 318 318 319 319 325 327 326 326 326 323 320 324 326 326 326 327 326 327 327 326 326 325 322 322 322 322 320 320 321 322 321 319 319 319 317 315 314 314 314 314 314 314 314 313 313 313 312 311 310 308 307 306
288 283 282 282 285 286 284 283 282 281 290 305 305 300 298 285 285 299 305 307 310 309 312 313 313 313 314 313 314 315 317 315 313 312 313 315 316 319 323 325 325 323 322 322 323 324 325 325 325 325 325 326 327 326 325 324 321 321 321 321 320 320 320 319 318 317 317 316 315 314 314 313 313 313 315 314 314 313 312 312 311 310 309 307 306 304
297 285 284 285 292 283 284 282 284 292 299 304 303 290 300 304 306 309 307 306 310 311 311 312 313 314 314 314 315 314 313 312 313 313 314 315 316 316 317 319 320 321 322 323 324 324 324 325 325 324 325 326 326 326 325 323 321 320 320 320 321 320 318 317 316 316 315 314 315 314 314 313 313 314 314 313 312 311 310 310 309 308 307 306 305 303
296 292 293 286 296 289 286 289 297 302 303 305 305 305 307 310 312 312 311 309 309 310 313 312 313 314 316 317 316 315 313 312 312 313 313 314 315 314 315 318 319 320 320 321 323 323 325 325 323 323 324 325 325 325 325 324 321 319 320 321 321 319 317 315 314 314 314 314 314 314 314 313 314 314 313 312 311 310 309 309 308 306 305 305 304 303
300 301 299 295 294 303 303 303 303 303 305 305 308 309 307 309 312 313 312 310 311 311 313 313 313 315 315 317 315 314 313 312 312 312 313 315 315 315 315 317 318 319 320 321 323 323 324 324 324 323 322 323 325 325 324 323 322 319 320 319 318 319 317 314 312 312 312 313 314 314 314 313 313 313 312 311 311 310 309 308 307 306 304 304 303 303
301 303 299 292 297 292 286 298 300 302 305 306 307 309 310 310 310 312 312 312 312 313 313 314 314 314 315 316 315 313 312 312 312 312 313 314 315 316 316 316 315 315 316 322 323 321 323 323 322 321 321 321 322 323 323 323 322 322 319 317 318 318 316 314 312 311 311 312 313 313 314 313 312 311 310 310 310 309 308 308 307 305 304 304 303 302
293 304 296 295 297 291 291 300 303 306 307 309 309 307 308 309 311 311 312 312 312 313 313 313 315 315 316 315 314 313 313 314 314 313 313 314 315 316 317 317 316 316 317 320 322 324 324 323 321 321 321 320 322 323 323 322 322 322 318 318 317 316 315 313 312 312 312 312 312 312 312 312 302 307 309 309 309 308 307 307 307 306 304 303 303 302
300 301 289 297 293 296 303 302 304 305 306 307 308 308 309 310 310 311 312 311 312 311 312 313 312 314 315 315 315 315 314 314 315 315 315 316 315 315 316 316 316 316 317 320 322 322 323 322 321 321 320 321 322 322 322 322 322 322 320 318 316 315 313 311 309 311 311 311 311 310 310 310 309 310 309 309 308 308 308 307 306 304 304 305 304 304
300 294 299 292 286 287 291 298 303 291 291 303 305 307 309 311 311 310 312 312 311 311 311 311 311 312 313 313 313 314 314 314 315 316 315 315 315 315 315 315 316 316 317 320 322 323 322 322 321 321 320 321 322 322 321 321 321 320 319 317 316 314 311 310 310 311 310 310 310 309 308 309 309 309 308 308 307 302 297 290 293 301 305 302 299 297
298 299 296 288 289 288 300 304 304 304 304 304 306 309 310 312 312 310 310 310 312 313 313 313 311 312 314 315 315 315 314 315 314 315 315 315 314 315 315 315 316 316 317 319 321 322 321 321 320 320 320 322 322 321 321 321 321 319 318 318 316 313 311 310 308 309 309 308 308 306 308 308 308 307 308 307 304 302 299 298 295 289 291 298 295 295
Wind_Speed
4 7 7 8 10 11 11 13 14 12 13 13 12 13 12 12 11 10 15 12 14 15 17 19 18 10 13 20 17 11 5 6 10 7 8 12 12 13 9 11 14 14 13 13 14 14 16 16 15 13 12 10 12 13 13 12 11 11 11 9 8 7 7 8 8 7 8 6 7 7 8 7 6 6 6 6 5 6 6 6 6 7 6 7 6 4
9 6 9 12 13 13 13 12 14 16 14 15 14 14 13 14 13 12 13 16 15 12 12 13 14 20 19 14 18 13 11 12 10 17 14 13 16 16 14 12 17 13 11 14 11 12 14 14 14 13 11 12 14 12 13 13 13 11 11 10 8 7 8 8 8 7 7 4 6 7 7 5 4 7 7 5 5 6 5 6 7 7 6 6 6 5
4 11 13 14 13 11 12 13 13 13 16 16 13 12 13 12 10 12 16 12 16 14 8 12 19 19 19 11 11 16 18 15 15 9 16 16 13 12 13 14 16 14 15 16 15 15 15 16 16 13 11 11 13 13 13 12 12 12 11 10 8 7 8 8 8 7 6 4 5 6 5 7 5 2 5 6 6 6 6 5 6 6 6 6 6 5
9 9 15 14 11 12 13 13 14 14 14 13 13 13 12 12 11 9 16 17 12 12 9 7 15 16 14 11 12 14 18 18 16 16 11 10 13 12 13 13 16 17 19 18 17 17 16 16 15 12 11 11 12 12 10 12 13 11 11 9 9 8 8 8 7 7 6 5 6 7 8 7 7 6 6 7 6 7 7 6 5 5 6 6 6 5
12 12 8 9 12 13 14 13 13 12 11 14 17 15 13 15 15 10 7 16 10 15 13 7 9 7 13 13 14 15 16 16 15 19 19 7 10 15 13 14 21 21 21 19 17 16 17 17 16 15 13 12 13 13 13 13 12 10 12 11 10 8 8 8 8 8 8 9 9 8 8 8 7 4 6 7 5 5 5 6 5 6 6 6 6 6
14 15 11 13 13 15 15 13 14 12 11 12 18 20 16 15 18 16 11 13 10 7 17 16 6 11 13 18 18 16 11 14 18 18 23 15 7 10 9 12 16 18 20 22 20 20 20 18 15 14 15 14 13 14 12 12 11 11 11 11 10 7 7 9 8 10 10 10 11 11 10 9 7 7 6 8 9 7 7 6 6 6 6 6 6 6
10 11 13 12 11 11 16 14 12 14 12 12 13 18 22 20 18 18 17 10 12 13 9 20 13 3 6 16 17 16 17 15 9 15 18 18 12 11 10 10 16 17 16 18 19 18 18 17 17 16 15 14 14 13 13 11 11 12 11 10 10 8 8 8 7 10 10 11 11 13 12 10 9 9 4 4 5 7 5 5 6 6 5 6 7 5
8 9 5 11 13 14 11 13 13 14 13 13 9 13 19 22 23 22 17 13 8 7 7 11 14 5 6 13 14 15 15 17 15 14 15 13 13 14 13 12 16 16 17 17 19 20 19 19 20 19 17 14 14 14 13 11 11 13 12 9 9 7 9 9 8 10 11 11 11 10 7 8 9 9 8 9 7 5 6 6 6 5 5 5 4 6
5 4 6 5 6 10 11 10 10 16 15 10 11 14 18 22 22 22 16 13 11 5 13 12 17 11 8 6 11 15 17 19 19 16 13 14 16 16 15 14 19 19 19 19 17 18 18 19 17 16 16 14 14 15 14 12 12 11 9 9 8 9 9 9 9 10 11 10 8 8 8 8 5 7 7 7 6 7 6 7 5 5 4 4 4 5
5 6 4 6 7 9 11 11 11 14 16 15 17 14 15 17 19 20 13 12 11 10 10 17 15 12 10 6 11 14 19 19 18 18 14 14 16 16 14 16 19 19 18 19 21 19 18 17 17 17 16 16 15 13 13 12 11 10 10 10 11 9 9 8 9 10 10 9 8 8 9 11 8 7 7 7 7 7 6 7 6 4 4 5 5 5
9 6 9 6 8 9 10 13 14 15 18 12 18 17 14 17 16 14 11 10 8 10 13 14 20 16 6 8 13 11 13 13 12 10 11 14 15 17 13 18 18 18 18 16 19 20 19 18 18 17 18 16 14 12 13 13 12 10 11 11 12 10 8 9 10 10 10 8 9 9 10 11 11 10 11 9 8 7 7 7 6 6 4 3 4 5
12 9 8 6 10 6 9 13 14 15 16 20 13 12 9 13 12 9 9 8 8 11 15 17 17 18 13 7 13 12 4 14 14 14 14 17 18 17 12 17 19 19 18 17 17 17 18 17 16 16 16 16 15 14 14 13 11 11 11 10 11 10 9 9 10 10 8 9 10 9 10 11 11 13 10 11 11 9 9 8 7 6 5 3 4 5
11 10 5 6 6 10 11 12 11 14 17 17 15 13 11 8 5 8 6 9 10 14 9 12 14 11 19 5 10 13 16 13 17 15 17 19 19 18 16 20 19 18 18 18 17 17 17 17 18 17 16 15 15 15 15 14 12 11 11 11 11 9 9 9 10 10 9 10 10 9 10 10 10 10 11 10 10 8 8 8 8 7 6 4 5 5
7 9 12 12 9 10 12 9 9 12 14 16 15 12 11 10 8 9 9 6 10 12 11 12 12 12 5 5 13 17 16 15 16 16 16 19 20 19 18 19 19 18 18 18 18 18 19 18 17 18 17 16 15 15 15 14 13 11 10 11 11 9 8 9 9 10 9 9 9 9 10 10 9 9 9 8 9 8 7 7 8 7 7 6 6 6
5 5 11 12 7 10 12 12 15 11 9 13 13 13 10 8 7 9 8 13 13 4 7 15 11 11 13 6 16 12 11 17 18 16 14 18 20 18 20 19 21 18 16 18 18 18 18 18 18 17 16 15 15 15 14 13 12 11 11 12 13 10 9 10 10 10 9 9 9 9 9 10 8 9 7 7 7 8 9 7 8 6 5 6 6 6
10 9 7 13 9 8 12 16 18 16 11 9 11 13 13 12 5 8 5 4 3 3 6 8 7 5 5 6 17 16 13 7 16 18 15 19 18 17 18 20 19 18 17 17 18 18 18 18 17 16 16 15 14 16 14 14 12 12 12 12 12 11 10 11 11 9 9 9 8 8 9 9 8 7 7 7 6 7 7 8 8 7 5 5 6 5
3 6 3 6 14 14 14 12 14 12 8 5 10 15 15 10 8 4 6 6 3 5 8 1 5 0 4 3 9 16 16 13 14 17 16 18 19 18 17 21 20 18 18 17 17 17 19 17 17 16 16 15 14 14 15 14 14 14 13 13 13 11 10 11 11 10 9 10 9 9 9 9 9 9 9 9 9 8 7 7 7 7 6 6 5 6
3 9 9 8 14 17 15 10 11 13 14 6 6 8 11 13 11 4 3 2 2 7 4 8 4 4 11 8 5 14 18 17 16 16 16 18 19 19 16 21 19 19 19 18 19 20 21 19 17 14 14 16 17 17 14 14 12 12 11 13 13 12 13 12 12 10 10 11 10 9 9 9 9 9 9 9 10 9 8 7 7 6 7 6 5 6
3 7 8 10 12 13 12 7 6 13 10 12 15 9 5 8 12 7 3 5 6 4 2 5 5 4 11 5 7 14 18 10 14 15 16 18 20 19 15 20 18 20 19 18 18 17 17 17 17 16 16 15 15 14 13 13 12 11 10 12 12 12 13 12 10 9 9 10 8 8 10 10 10 9 9 9 10 9 9 9 8 8 7 7 6 7
1 1 7 8 11 9 7 7 11 8 12 20 13 14 11 10 6 8 4 2 6 3 4 3 5 3 7 7 9 16 17 8 12 12 17 19 20 16 15 17 19 20 19 19 18 17 17 18 17 17 17 16 15 13 13 13 12 12 12 13 10 10 11 11 10 10 11 10 9 9 10 9 10 10 10 10 10 9 9 9 9 8 8 7 6 7
2 4 5 4 6 6 5 7 10 8 9 9 10 10 8 5 5 2 4 5 2 2 3 2 6 4 5 6 9 12 10 11 15 16 16 17 18 17 16 17 19 20 19 19 18 18 18 18 16 15 15 14 10 9 10 12 14 12 11 12 12 14 14 12 10 11 10 10 10 11 12 11 11 11 10 10 9 9 9 8 8 8 7 7 7 7
2 4 4 2 2 6 9 9 7 9 10 7 6 7 7 8 6 4 4 3 3 1 3 3 3 4 7 6 8 9 7 13 18 18 17 16 14 14 16 19 20 19 19 19 18 19 18 17 16 14 12 10 11 12 12 11 11 12 12 12 11 13 12 12 12 12 11 10 11 12 12 12 11 11 10 11 10 9 8 8 8 8 8 8 7 7
6 2 3 3 4 7 10 3 4 9 11 9 7 9 9 9 6 4 3 5 3 5 2 5 2 7 8 7 12 8 8 10 12 13 14 16 19 18 16 20 22 22 20 20 20 19 18 17 16 16 16 15 16 14 13 11 11 12 12 12 10 12 12 12 12 12 11 11 12 12 12 12 11 11 12 12 10 9 9 8 8 8 9 8 8 7
3 1 2 5 7 6 4 6 7 10 12 13 12 12 9 10 10 5 4 4 3 3 4 1 3 5 6 4 8 9 11 11 10 11 15 15 14 17 20 21 20 19 20 21 19 18 17 16 15 13 12 13 13 12 12 11 11 11 11 11 11 12 12 12 12 12 12 12 12 13 13 12 12 13 12 11 10 10 9 9 8 8 8 8 8 9
1 1 2 3 2 3 3 8 8 5 5 7 6 8 10 14 15 13 12 1 5 4 7 6 6 3 3 1 8 10 15 14 12 9 16 16 13 15 18 19 19 21 21 20 20 18 16 15 16 14 13 14 14 12 11 11 12 13 12 11 12 11 12 13 12 12 13 14 13 13 13 13 12 12 12 11 10 10 10 10 9 8 9 8 8 7
3 2 1 0 1 4 3 7 7 7 8 3 7 13 15 17 18 8 6 1 6 4 6 3 2 4 3 3 8 10 11 10 10 9 12 16 16 17 17 18 20 21 21 22 20 18 18 17 15 13 13 12 13 12 12 11 13 13 13 12 11 11 12 12 12 13 13 13 13 13 14 13 13 13 13 11 10 11 10 10 9 9 8 8 8 7
1 1 2 4 5 3 2 3 4 6 2 6 8 10 14 17 15 8 3 1 5 2 3 4 8 4 1 4 7 8 9 8 9 8 12 12 15 19 19 19 19 20 22 23 21 18 16 14 16 15 14 14 14 12 12 12 13 12 13 13 12 11 11 12 12 13 13 13 13 13 13 12 12 12 12 11 11 10 10 10 9 10 9 7 8 8
1 1 5 6 8 11 9 8 9 5 9 8 9 9 12 15 14 5 5 9 3 2 3 2 7 8 5 3 7 7 6 6 7 10 12 15 17 18 19 18 20 21 20 19 18 20 19 17 15 14 13 14 14 13 11 10 12 12 13 13 13 11 11 11 12 13 13 13 13 12 12 11 11 11 11 10 10 10 10 9 9 9 8 7 8 8
4 0 5 6 10 11 7 8 8 8 10 11 11 9 10 11 14 12 7 4 5 3 5 4 5 8 2 5 5 4 4 3 9 14 15 17 17 18 18 20 21 20 20 21 21 20 19 17 16 15 15 15 15 14 14 12 12 10 11 11 11 11 12 12 12 12 13 13 12 12 11 11 10 10 11 10 10 10 10 9 9 8 8 7 8 7
3 1 5 7 10 10 9 8 8 8 9 12 15 11 13 17 19 10 2 4 5 2 2 1 4 8 4 4 3 5 3 2 5 13 13 15 17 18 20 21 21 20 20 20 20 19 18 19 17 17 16 16 17 16 14 13 13 12 13 13 12 12 12 13 13 12 13 12 12 11 11 11 10 10 11 11 10 10 10 9 9 9 8 8 8 7
3 3 3 7 4 8 8 7 7 8 7 10 14 15 17 18 18 5 4 4 2 3 5 4 5 7 4 0 4 4 5 7 7 19 18 17 17 17 18 18 18 19 18 18 18 17 17 17 16 16 17 17 17 17 15 13 13 11 12 11 12 14 13 13 13 12 12 12 12 12 11 11 11 11 11 10 10 10 10 10 9 9 9 8 7 7
1 1 2 4 5 7 7 6 4 6 7 10 13 16 19 16 5 1 3 1 3 1 4 4 7 4 5 5 5 9 11 9 8 19 20 18 19 19 19 18 18 18 18 18 18 18 18 17 16 17 17 17 17 16 15 14 13 13 12 12 14 13 13 13 13 12 12 12 12 12 12 11 12 12 11 10 10 11 10 9 10 10 9 8 7 6
2 1 3 4 4 4 9 5 2 4 6 9 13 12 12 2 5 2 3 3 1 9 2 3 1 0 1 3 9 9 11 9 7 10 14 17 20 21 20 19 19 18 19 18 18 18 18 18 17 17 16 15 16 16 15 14 12 13 12 14 14 13 13 14 13 12 12 12 12 12 11 11 12 12 11 10 10 10 10 10 10 10 9 9 7 7
3 3 2 2 0 5 13 2 3 3 3 9 7 7 1 2 6 6 1 4 2 3 2 3 3 1 3 7 7 6 9 4 3 3 6 12 12 15 18 20 20 19 18 18 18 18 16 14 13 14 15 15 15 15 13 12 10 10 13 13 13 15 14 14 13 13 12 12 12 12 12 12 12 12 11 10 10 10 10 10 10 9 8 7 7 8
5 3 1 1 1 4 9 6 2 3 11 7 6 9 6 1 4 8 7 2 1 5 1 2 6 5 5 5 4 6 7 3 5 9 9 7 3 8 12 15 16 18 17 17 17 15 14 15 15 15 15 14 15 14 14 12 11 12 13 14 14 13 14 14 14 12 12 12 11 12 12 12 12 12 11 10 10 10 10 10 9 9 8 8 8 9
5 4 2 2 2 2 3 2 4 7 7 6 8 12 10 2 4 5 2 3 6 4 4 1 0 4 5 6 6 6 9 5 4 6 6 11 11 1 11 11 16 16 17 15 17 16 16 16 18 18 16 13 14 14 13 12 12 13 14 13 14 12 13 13 13 13 13 13 13 13 12 12 12 12 11 11 10 10 10 10 10 9 7 7 6 6
9 3 2 1 2 2 2 2 6 7 8 5 6 5 5 4 4 5 4 8 3 7 7 3 0 3 5 6 6 7 9 7 5 4 4 7 7 10 4 15 16 16 16 14 16 15 16 15 15 16 15 14 14 14 13 12 13 14 13 13 13 13 13 13 13 13 13 13 13 13 12 12 12 12 12 11 11 10 10 10 9 8 7 8 8 8
10 4 2 3 2 2 1 2 5 4 3 7 7 6 4 2 5 8 2 4 5 4 3 8 4 2 7 6 6 6 8 7 3 5 2 1 2 4 4 4 8 14 11 11 11 12 14 14 15 15 16 15 14 13 12 12 13 14 13 12 13 14 13 13 14 13 13 12 13 12 12 12 12 12 11 11 11 11 9 9 8 9 8 10 9 8
6 6 7 6 2 4 1 1 3 2 5 8 7 8 6 2 3 6 3 7 6 4 2 10 11 7 10 8 4 6 6 2 5 7 7 3 4 8 10 10 9 11 15 16 17 17 17 16 17 15 15 15 15 12 12 14 15 14 13 12 13 13 13 13 13 13 13 12 11 11 11 12 12 12 11 11 12 11 12 11 11 9 9 9 8 8
7 3 4 1 1 2 1 1 4 3 4 5 5 5 7 2 7 5 2 6 6 10 3 7 7 8 6 8 7 6 8 7 7 8 4 4 4 3 8 13 12 12 13 15 16 18 17 16 16 15 16 16 14 13 14 15 14 13 12 12 12 12 13 13 13 12 11 12 12 11 10 10 11 12 12 13 12 11 10 9 9 11 11 9 8 8
2 2 2 6 2 2 3 2 2 5 6 4 6 8 12 1 8 6 9 4 5 7 5 7 8 7 8 9 7 4 4 5 6 5 4 4 5 4 3 6 13 15 16 17 17 17 16 16 17 16 15 12 12 13 14 14 14 13 12 12 11 12 11 11 11 11 11 12 12 11 12 12 12 13 12 11 11 10 9 8 10 10 10 9 8 8
1 1 0 1 1 5 3 1 5 4 6 5 11 11 5 2 4 7 5 3 3 7 6 7 6 3 6 7 5 3 1 1 3 4 1 4 9 5 9 13 13 12 12 14 17 17 15 14 14 15 14 14 13 12 12 14 15 13 11 11 12 10 10 10 11 10 11 11 11 10 11 12 11 11 10 10 10 10 9 8 9 10 9 8 9 9
1 1 1 2 1 2 0 1 2 2 2 12 19 12 5 3 3 2 0 3 3 4 6 6 7 5 8 7 5 6 9 13 14 15 17 16 14 7 3 11 14 16 16 15 13 13 16 13 13 14 13 12 13 12 12 14 15 14 12 12 11 10 10 10 11 12 11 11 11 11 11 10 10 9 7 8 8 9 8 7 8 7 8 9 9 9
3 1 1 1 1 3 3 4 3 2 10 12 8 3 5 1 1 2 2 3 4 4 4 5 6 6 7 8 9 11 10 10 10 13 15 16 15 14 14 13 12 10 10 9 13 13 13 13 11 11 12 11 11 12 13 15 14 12 12 12 10 10 10 10 11 11 12 11 11 10 9 9 10 9 7 8 8 8 8 9 8 8 7 8 9 8
1 1 2 3 3 2 3 2 7 10 8 8 4 6 13 6 3 3 5 3 3 4 2 6 5 7 8 12 11 11 12 10 8 8 12 14 15 13 10 8 10 9 10 8 7 11 11 11 12 11 10 10 9 10 12 12 14 13 14 11 10 10 10 9 10 10 10 10 10 10 9 8 8 8 7 8 10 11 9 9 10 8 7 8 8 8
3 4 2 4 3 1 3 5 8 5 7 8 10 7 12 15 5 7 7 5 5 3 4 6 5 7 7 10 11 7 8 8 10 9 9 11 15 13 10 8 8 9 5 5 5 9 10 12 10 11 12 10 9 8 9 9 13 14 9 9 10 11 11 10 10 9 10 9 9 9 9 9 9 9 10 9 8 9 10 11 10 9 8 8 8 8
2 2 1 2 5 1 3 9 10 8 7 9 9 12 12 13 7 8 8 7 4 5 7 6 4 5 6 8 10 9 5 5 8 6 10 11 12 10 14 9 3 6 2 5 7 7 10 11 10 9 8 8 6 8 8 9 9 10 10 11 10 10 10 10 10 9 8 9 8 8 9 10 9 9 9 9 8 7 7 8 9 10 9 8 9 8
4 1 1 1 5 1 2 5 6 6 3 7 9 8 10 10 13 12 10 10 11 9 8 6 7 8 6 8 8 10 7 7 10 9 7 8 11 9 8 9 9 4 2 2 5 11 9 9 9 9 8 7 6 7 8 9 9 8 11 11 11 10 10 9 10 10 9 9 8 8 9 9 11 12 9 9 10 9 8 8 10 10 10 10 10 9
5 4 1 5 2 3 1 4 7 3 6 9 9 8 6 8 9 8 7 10 14 13 11 9 7 4 5 7 9 9 8 6 8 9 9 9 9 8 8 8 8 5 0 4 6 12 10 9 8 9 8 7 6 7 8 8 7 9 11 11 11 11 11 10 9 10 10 9 8 8 8 9 9 9 10 9 8 7 6 9 8 7 5 4 7 9
1 3 2 4 3 4 2 3 6 4 4 7 7 9 12 12 9 11 9 9 10 11 9 9 9 6 9 9 7 7 9 7 7 9 9 8 8 7 8 7 8 7 2 1 8 9 11 11 10 7 9 8 7 8 9 8 7 8 9 11 10 10 11 10 9 9 10 9 8 8 8 8 8 8 9 9 9 8 6 10 9 3 7 6 6 10
2 2 2 2 0 1 4 4 2 0 1 4 5 8 12 10 4 10 9 3 6 1 5 9 10 12 12 11 10 10 9 10 8 9 9 9 7 6 7 9 9 6 1 3 5 9 9 9 9 10 8 6 6 8 8 8 6 9 9 10 10 10 10 9 8 8 8 9 8 9 9 8 8 8 8 8 8 8 8 6 8 13 9 5 9 8
Wind_Direction
168 190 206 211 218 223 225 224 243 257 257 273 268 256 244 239 250 224 225 215 213 223 218 211 216 227 220 217 226 240 261 227 209 213 221 220 217 221 197 164 168 165 160 162 157 148 144 144 143 141 140 134 143 148 152 152 157 159 158 157 157 147 148 142 140 143 148 145 141 133 147 160 177 106 106 99 105 109 119 120 112 110 118 127 130 131
187 216 222 219 221 224 233 230 229 245 256 254 257 256 255 243 232 235 224 211 220 216 218 199 204 222 232 218 209 224 247 244 222 218 210 212 215 216 195 165 170 163 153 149 143 143 139 140 140 141 141 143 146 155 154 157 161 159 155 161 158 147 152 150 148 146 145 148 152 145 159 144 99 125 124 125 111 120 117 112 118 120 123 129 133 138
222 214 224 227 223 231 237 243 244 233 238 247 251 253 262 255 247 228 244 221 212 218 222 200 212 217 217 204 197 210 226 235 236 205 224 212 207 202 189 172 163 154 151 155 148 146 145 144 143 144 146 150 148 153 157 159 155 156 160 164 156 155 155 154 146 140 148 147 144 144 146 120 102 88 125 123 131 121 117 120 127 131 129 129 131 138
246 240 227 223 228 231 238 240 242 243 235 234 240 246 239 254 243 213 223 240 217 212 215 220 212 212 205 205 208 212 216 225 227 234 218 220 203 191 189 172 158 155 152 155 151 149 148 147 145 142 149 152 145 150 155 160 158 159 162 162 161 159 156 152 149 142 151 136 111 106 116 119 133 153 134 116 120 115 118 131 135 128 132 132 132 139
227 241 244 237 220 225 238 239 236 238 236 229 235 241 241 241 254 254 197 233 244 209 220 209 209 212 201 203 213 225 227 220 215 224 238 208 207 196 189 170 160 159 156 155 148 144 147 151 153 152 153 154 154 160 164 164 162 163 163 165 166 159 156 156 153 158 141 116 113 110 97 107 104 94 112 109 110 125 133 131 136 142 141 140 138 142
229 228 226 227 230 222 225 233 234 230 241 240 231 235 242 247 251 262 255 202 228 238 206 215 208 224 202 205 206 214 218 217 213 210 226 224 200 193 181 163 162 156 155 153 153 155 156 153 147 147 155 160 159 160 165 164 161 160 164 168 165 151 154 159 164 163 141 143 144 145 143 148 146 141 139 142 148 148 149 150 150 135 140 142 142 147
243 227 223 240 249 239 222 226 230 231 239 238 230 225 238 250 259 255 262 214 218 225 205 213 214 264 196 202 199 201 216 221 217 214 210 219 196 191 180 157 160 154 155 152 151 150 151 154 151 152 157 160 157 157 160 164 163 165 167 170 162 152 158 165 175 165 146 150 163 166 166 151 146 142 146 126 133 139 145 134 125 133 138 150 150 150
252 263 235 220 236 253 248 223 219 231 237 241 241 222 233 240 248 254 258 263 242 241 250 221 221 195 216 208 191 190 202 224 225 212 209 199 191 185 180 156 160 155 156 156 154 157 155 156 155 157 158 159 158 158 163 164 166 173 173 160 154 152 163 175 177 170 158 161 171 167 142 137 144 150 147 147 146 134 132 122 123 119 120 130 135 129
248 268 246 260 261 252 247 236 211 225 239 243 237 228 228 232 241 247 254 261 279 214 223 228 216 224 217 212 179 183 204 214 223 212 202 185 183 180 174 153 157 158 159 154 155 156 156 158 154 150 153 155 156 164 167 166 174 172 161 155 158 162 168 177 176 171 163 163 161 145 125 128 130 132 133 132 124 127 126 118 118 103 88 88 92 114
244 260 273 255 247 249 251 250 223 222 236 240 257 244 230 242 240 245 243 254 261 266 229 211 207 223 223 163 190 193 201 209 213 207 190 177 176 176 163 154 156 159 160 158 157 157 156 155 151 151 150 157 167 167 162 167 170 168 164 163 167 169 172 177 173 170 162 153 138 131 137 135 134 127 124 130 134 134 131 125 122 102 90 94 86 90
273 207 209 232 233 243 252 244 242 227 239 250 245 249 230 232 238 236 243 241 266 261 251 218 208 212 228 206 187 198 209 198 204 198 186 179 177 177 158 157 158 161 160 161 158 157 154 152 148 150 156 166 164 163 168 172 172 169 168 161 171 175 171 177 170 165 157 140 140 143 150 141 137 140 141 140 140 141 138 133 127 116 106 89 95 90
255 254 214 202 233 263 293 283 251 239 230 230 237 237 223 238 231 240 234 230 235 246 247 222 220 194 222 226 204 211 175 200 192 190 183 181 178 178 155 162 161 160 161 158 154 152 147 144 147 152 160 166 166 168 175 175 169 168 167 160 159 172 178 173 166 158 146 139 149 151 144 140 146 150 153 153 153 156 147 141 132 123 118 108 78 79
258 250 265 267 237 242 243 263 268 247 231 229 231 241 215 218 185 222 221 226 220 233 239 234 203 194 216 178 179 204 221 207 196 187 183 177 177 176 158 162 163 161 160 157 153 150 151 152 154 161 165 164 169 176 176 174 171 166 165 163 161 173 172 166 157 152 140 144 158 148 143 148 153 154 153 152 148 150 144 142 137 139 139 131 105 109
258 240 233 237 250 231 233 230 239 245 228 220 226 222 217 206 193 209 211 219 241 233 223 254 196 220 188 202 173 200 212 203 194 188 179 171 172 172 158 161 163 162 161 157 155 155 157 157 158 163 164 167 174 178 178 174 170 166 164 165 168 171 161 151 146 146 136 146 150 146 152 154 153 153 151 151 148 145 139 142 143 148 154 150 146 133
280 269 235 205 218 200 219 225 235 245 233 229 227 226 223 216 192 192 194 203 215 210 215 231 223 210 165 253 179 206 211 197 193 182 170 168 170 168 158 160 161 159 160 157 157 159 159 157 158 161 165 170 176 179 178 174 171 162 164 168 170 166 155 148 146 144 135 139 144 148 154 155 153 151 147 146 144 141 141 144 143 146 148 144 141 127
237 255 277 196 218 177 214 224 229 228 258 257 231 230 238 218 213 214 209 209 225 219 234 220 232 135 180 190 178 201 212 199 184 179 168 169 167 164 153 159 160 159 161 161 157 155 154 156 159 162 165 172 175 179 178 174 169 168 169 169 170 164 155 151 150 146 136 141 145 144 149 150 142 137 130 129 132 134 139 144 146 149 149 144 132 120
243 253 279 306 206 214 224 218 214 217 218 223 232 214 222 236 237 220 253 242 160 185 242 234 216 328 151 299 198 194 213 211 187 181 169 168 166 163 152 162 162 161 160 157 153 153 153 155 162 164 165 170 177 180 179 174 172 170 166 167 169 161 153 154 154 146 139 144 147 148 143 136 134 138 143 145 142 136 133 138 142 146 144 135 127 122
262 270 278 242 245 222 225 223 229 211 232 293 280 220 229 251 267 229 192 251 244 184 249 209 186 164 151 211 226 207 197 211 174 185 168 165 164 165 154 163 161 158 157 155 154 154 156 158 159 162 170 174 179 179 172 169 166 166 166 168 168 160 157 158 157 149 145 148 151 150 144 139 138 139 139 139 139 137 137 139 139 138 140 145 137 129
167 275 268 259 241 223 214 225 276 256 230 238 240 306 256 198 231 253 247 208 202 200 239 209 168 208 169 230 190 202 207 198 173 172 162 166 166 165 152 159 154 152 148 150 151 154 152 155 161 167 173 180 178 173 167 158 159 160 163 170 168 162 158 157 155 147 145 149 153 154 152 148 140 137 134 133 136 142 146 147 146 147 144 138 131 131
138 295 299 263 208 185 190 142 223 212 229 235 260 269 263 292 248 207 210 226 133 214 205 260 174 234 187 204 183 195 209 164 171 156 162 166 165 162 155 152 150 151 151 151 154 155 155 159 165 168 173 177 176 166 159 158 161 163 162 163 159 153 154 157 157 148 148 154 153 150 150 146 140 138 137 137 139 145 149 149 148 144 142 142 131 134
223 181 270 327 121 123 212 193 207 194 208 218 224 247 272 251 266 288 238 218 148 173 166 174 195 268 253 192 180 198 181 175 164 161 161 165 165 161 154 144 150 151 153 154 152 152 156 161 164 170 174 175 163 152 151 159 167 162 157 162 159 159 162 164 157 149 152 151 150 147 147 145 140 136 134 134 139 143 148 147 144 141 136 129 133 132
208 186 244 313 310 196 232 208 195 209 219 225 220 238 237 252 227 201 272 244 246 147 198 120 232 245 257 180 189 193 178 168 160 154 158 162 157 155 147 142 148 151 152 149 148 151 157 161 164 167 169 160 155 158 161 162 156 158 161 163 157 159 163 163 156 155 151 150 151 147 144 144 138 136 139 140 145 146 148 146 144 139 134 133 135 132
201 240 291 285 255 242 240 266 243 272 283 273 251 253 256 259 256 215 195 235 225 250 206 168 138 239 241 184 177 179 159 152 153 141 151 162 158 155 146 146 149 149 148 148 149 153 158 160 163 168 169 166 165 164 162 160 158 157 157 159 162 162 166 160 156 153 149 150 154 147 144 142 140 140 145 146 148 149 149 147 143 142 137 136 135 132
199 308 321 259 244 222 301 309 272 252 253 267 261 270 282 275 251 237 210 199 194 256 256 205 233 256 266 193 187 158 148 143 145 134 144 157 159 151 144 145 143 141 142 147 149 153 158 158 159 161 162 157 160 164 165 158 150 151 156 162 165 168 162 152 155 153 148 152 154 147 143 143 142 146 148 150 152 151 151 146 144 140 138 140 139 142
241 247 205 313 14 2 351 314 289 247 247 256 266 267 269 275 260 233 251 125 211 223 190 129 204 271 284 143 145 140 141 144 150 139 145 150 150 144 143 141 140 138 141 146 150 153 153 154 159 165 165 163 165 167 162 156 154 158 162 165 168 167 158 152 155 152 150 153 152 149 145 144 147 150 153 154 154 152 149 148 145 145 146 147 145 146
114 234 59 30 157 132 160 201 215 223 227 249 258 269 272 269 267 270 246 269 228 249 222 145 213 254 272 89 119 132 126 136 149 140 149 148 147 145 140 139 139 140 145 148 150 152 158 161 163 162 164 162 166 167 165 157 157 161 165 169 166 160 155 154 154 151 151 151 150 150 147 148 150 155 156 154 152 152 152 150 149 147 152 154 144 147
160 227 225 233 261 273 257 269 212 219 208 227 253 263 277 289 286 264 276 205 222 252 235 231 182 217 148 120 116 140 124 135 151 120 133 135 143 142 141 142 144 146 148 149 153 159 157 156 163 167 164 164 166 169 167 160 160 162 165 166 164 155 151 151 150 150 151 150 148 150 151 151 154 152 152 153 152 151 152 153 151 149 154 152 147 151
99 316 250 250 259 261 283 331 319 296 264 261 258 263 276 281 283 283 220 233 228 56 322 273 190 142 189 107 140 154 136 136 146 129 135 138 145 144 144 144 144 146 147 149 152 155 160 163 162 162 164 161 168 169 167 162 163 163 166 163 159 150 147 151 150 150 151 150 149 151 152 152 150 149 149 149 151 151 152 150 149 149 149 143 151 155
128 318 295 325 296 286 301 306 293 309 283 275 271 261 260 267 266 263 237 249 57 154 203 321 335 97 17 23 353 21 20 202 152 142 140 144 143 140 141 143 146 149 151 153 157 159 159 160 164 166 164 163 166 170 168 164 162 159 162 162 159 147 150 150 149 150 149 149 149 150 150 146 145 144 145 148 150 150 151 151 149 149 146 147 152 157
63 276 308 306 295 305 305 296 299 298 307 301 278 260 252 254 261 270 51 71 52 109 169 221 59 85 85 11 347 342 291 33 162 128 126 130 137 140 142 146 150 153 155 156 158 159 162 163 165 166 163 162 167 169 169 165 167 166 165 168 161 149 151 149 150 148 148 149 148 147 146 144 144 146 146 150 155 155 152 151 150 149 149 151 155 156
91 286 73 280 287 288 289 289 268 265 277 289 293 269 248 252 257 252 164 79 60 343 342 11 45 39 340 21 31 329 12 49 109 133 137 137 136 138 141 145 149 153 157 156 156 159 161 163 165 162 163 165 165 169 169 166 169 167 168 163 154 150 149 146 146 148 149 146 146 145 142 143 147 150 153 156 156 155 153 153 148 147 148 150 153 153
90 265 354 0 5 303 298 279 276 280 276 286 291 292 274 253 257 273 69 1 127 87 304 350 34 358 306 357 39 22 38 46 127 142 143 146 146 145 148 153 155 157 158 158 159 159 162 166 166 165 165 164 162 165 168 168 169 171 167 153 150 147 144 144 146 148 148 145 146 144 142 145 149 154 157 157 159 156 154 148 143 146 149 149 149 148
118 98 25 359 16 271 283 262 268 347 349 305 274 267 250 157 147 259 135 99 219 146 149 86 229 187 17 25 48 22 43 37 56 127 140 147 151 151 152 157 159 161 161 160 162 165 168 170 169 165 161 159 162 166 170 169 165 169 154 152 147 144 144 144 146 146 146 148 148 146 144 147 152 156 160 161 158 155 152 146 143 147 148 154 152 141
57 70 89 37 88 290 307 282 55 24 303 244 236 258 287 345 95 109 275 181 154 95 205 183 179 181 36 55 59 45 55 55 27 348 125 141 149 149 153 158 161 162 161 164 167 170 167 163 163 159 158 160 161 162 162 165 156 150 146 145 145 145 146 146 149 149 148 149 149 148 148 151 155 159 161 159 157 154 152 147 148 151 152 148 143 146
126 97 94 154 14 291 309 347 59 248 239 243 282 299 295 277 118 162 217 153 196 179 48 79 95 82 91 94 74 70 89 68 57 60 19 12 95 130 144 155 160 160 163 167 169 167 163 160 155 150 152 157 157 158 159 161 144 144 145 147 147 147 146 149 149 150 150 150 151 150 152 155 158 161 160 160 157 154 153 149 146 147 149 148 151 153
142 135 162 212 162 311 317 237 184 240 265 296 282 275 279 285 194 227 332 183 227 159 171 102 213 114 86 64 62 76 76 59 35 76 61 41 8 282 149 158 163 163 167 169 165 165 160 157 156 155 153 148 151 160 163 157 146 145 147 149 146 147 146 147 148 150 153 154 156 157 157 158 160 161 162 161 159 156 154 152 148 145 143 138 135 133
152 101 108 336 199 202 249 232 260 316 327 282 273 266 222 227 180 166 184 258 216 206 139 171 307 109 77 68 74 68 66 53 28 325 61 49 53 354 241 161 163 170 167 164 161 159 158 149 145 145 142 148 155 161 162 150 147 144 146 149 148 149 149 149 151 155 158 158 158 156 158 158 158 162 163 162 159 158 155 150 143 139 141 141 146 145
151 143 171 101 270 167 10 354 343 349 266 266 247 272 268 205 155 143 200 306 294 267 165 136 136 180 98 86 77 85 70 57 31 276 323 57 100 107 54 61 158 159 148 140 131 130 136 138 136 141 145 149 155 160 156 147 146 145 148 152 152 152 153 154 155 159 159 159 155 151 154 158 160 162 163 162 162 159 155 151 149 153 153 152 153 153
147 138 142 139 247 25 15 194 240 224 252 227 241 260 264 224 131 100 179 279 275 289 42 125 143 140 129 121 106 89 83 114 225 254 259 208 179 143 118 112 108 141 142 141 139 136 138 141 142 144 145 148 155 160 152 145 144 147 153 155 155 155 157 158 159 160 159 154 149 149 156 159 160 160 162 166 167 165 163 162 160 156 154 155 151 146
110 99 83 52 199 210 169 253 260 236 263 284 315 308 284 123 95 77 168 266 262 325 279 129 135 135 134 118 108 108 137 177 215 234 226 194 182 219 152 140 130 133 131 131 133 135 134 134 134 144 151 156 157 151 148 144 146 147 151 155 154 158 160 161 160 156 149 149 149 152 150 152 157 164 168 172 173 173 164 158 155 160 159 156 148 145
69 123 134 200 213 258 251 237 258 295 282 268 287 303 322 280 92 135 207 230 284 335 318 116 138 145 133 116 114 123 189 183 216 207 199 182 155 168 184 133 136 138 135 133 133 131 135 142 145 149 151 146 145 147 146 145 143 148 152 151 152 157 160 154 149 148 149 150 149 148 153 158 162 169 176 174 171 168 163 160 158 156 155 149 140 138
29 100 297 83 278 243 217 148 235 253 245 301 317 307 299 170 170 215 231 231 296 345 350 95 102 87 106 103 112 118 190 236 139 97 173 195 169 181 141 135 129 123 122 125 130 132 135 140 142 143 144 142 146 143 143 142 143 148 150 150 152 153 148 147 141 137 141 146 146 145 151 162 167 167 168 168 166 169 165 159 155 154 142 128 133 135
343 91 245 168 231 82 353 50 330 238 302 357 332 328 25 121 226 209 312 345 10 42 59 45 72 65 81 77 88 94 64 50 47 41 28 16 7 4 94 128 128 128 128 127 125 130 133 137 143 142 141 142 144 144 144 143 145 150 151 151 151 145 144 140 132 131 137 143 150 155 159 159 156 160 165 170 168 161 156 147 135 127 121 119 121 125
351 80 320 311 172 187 184 197 209 276 298 316 353 328 311 302 218 44 103 34 2 61 75 69 50 64 66 76 71 64 64 62 50 58 47 36 30 26 45 46 48 60 80 95 120 126 127 128 129 132 140 142 146 146 147 148 149 153 152 153 150 144 142 139 129 132 139 147 152 154 156 156 157 161 156 150 135 130 133 134 131 127 123 124 129 132
37 185 242 241 326 139 198 257 290 298 282 292 333 332 300 309 44 77 73 68 61 19 30 82 61 44 54 81 79 86 77 76 77 65 90 84 64 38 22 65 94 83 101 124 132 121 122 120 128 134 139 141 143 140 147 149 148 153 155 157 151 148 142 139 132 133 138 145 149 151 151 144 149 150 137 136 138 139 143 140 139 133 135 134 140 146
177 204 171 77 264 139 224 228 272 301 336 336 5 337 328 317 3 43 50 49 16 11 36 79 65 59 67 90 94 85 105 127 110 106 92 102 113 101 65 56 78 92 115 145 136 120 118 119 128 137 139 142 143 137 142 145 147 151 151 140 143 146 144 141 139 141 147 148 149 150 145 140 140 142 142 142 147 150 154 153 150 145 151 150 152 154
219 198 331 74 295 67 330 319 333 336 322 353 4 10 350 293 7 33 36 28 7 26 40 24 71 79 80 93 107 118 111 85 83 74 94 94 74 82 112 113 21 68 355 179 125 100 114 125 134 138 137 135 134 134 141 141 153 144 130 138 141 143 143 142 143 145 147 151 147 146 146 148 148 143 143 142 141 141 139 134 136 148 155 158 155 155
320 150 57 304 302 110 205 279 316 308 0 10 11 359 298 338 22 14 19 19 358 1 17 19 60 63 81 90 103 106 111 108 101 100 96 90 98 98 97 104 95 102 193 37 117 121 123 126 134 142 140 130 121 129 138 141 148 135 136 137 138 137 134 138 146 148 151 151 151 150 152 155 149 148 149 151 149 145 147 159 163 165 169 167 162 163
284 319 61 334 345 308 356 358 332 301 39 27 7 315 312 1 17 30 24 22 9 351 12 24 45 48 83 103 108 111 109 99 102 106 100 93 94 106 115 107 104 103 295 95 105 129 134 130 134 138 135 133 130 134 141 146 138 135 137 136 135 136 136 139 141 143 146 148 150 150 151 155 159 159 154 152 151 140 144 165 171 158 149 155 166 170
1 34 360 51 355 344 338 349 323 40 1 340 342 327 345 351 14 16 360 52 39 344 345 34 49 41 49 56 77 100 105 100 95 97 90 88 99 108 106 102 100 87 339 100 115 127 133 137 138 137 145 148 144 145 153 153 142 138 133 132 133 132 131 136 139 144 149 149 148 148 152 157 159 157 156 151 146 122 80 32 51 113 160 160 155 164
36 344 35 358 173 259 299 336 300 274 317 323 318 347 347 330 1 51 13 320 132 197 307 47 50 46 42 42 50 74 93 109 114 109 104 102 99 96 102 108 103 93 74 32 83 126 138 142 145 143 140 142 138 151 154 152 141 143 138 131 131 131 132 137 138 147 151 151 156 159 160 161 159 162 156 153 140 134 126 116 52 32 30 151 173 175